Showing default

LEMUR 2 MJR092620, 58340

Orbit data source: Space-Track

LEMUR 2 MJR092620, 58340 is an American payload satellite in SSO that was launched on Sat, 11 Nov 2023 UTC via an FALCON 9 launch vehicle from the Air Force Western Test Range (AFWTR). Payload-class satellites include a variety of spacecraft equipped with specific instruments for various scientific and technological missions. These include communications satellites like Starlink; space stations such as the ISS; scientific satellites like the Hubble; Earth observation satellites from companies like Planet Labs, Umbra, and HawkEye 360; GPS; miniature CubeSats for education and research; and military/defense satellites.

Loading next visibility...
Identifier
58340, 2023-174CN
Orbit
SSO
Country
Flag of USUS
Related business
Manufacturer
Spire/Glasgow
Mission
Operational Commercial Earth Obs Sci
Bus & Motor
CUBESAT 16U, Unknown motor
Mass
~20 kg wet, ~20 kg dry
Launch date (UTC)
2023-11-11 (3 years ago)
Launch vehicle
FALCON 9
Launch site
Air Force Western Test Range (AFWTR)
Object type
Payload
Rocket body
Debris
Shape & HBR
Box, 0.2 m
Radar Cross Section
0.240 m², Medium (>0.1 m² and < 1m²)

Expand to show TLE details & history
Last TLE update: 10 hours ago

TLE from 10 hours ago
0 LEMUR 2 MJR092620
1 58340U 23174CN  26236.89450573  .00018418  00000-0  36390-3 0  9993
2 58340  97.3962 328.2996 0004970 212.6542 147.4402 15.47178109156264
Epoch: 2026-08-24T21:28Z
TLE epoch observation values (Epoch: 2026-08-24T21:28:05.295Z)
Latitude
0.00008°
Longitude
33.10787°
Altitude
430.964 km
Speed
7.651 km/s
True Right ascension
21h 53m 11s
True Declination
0° 00' 00"
Sunlit
Object was in full shadow at epoch
Visualization orbit readout
Latitude
Unknown
Longitude
Unknown
Altitude
Unknown
Speed
Unknown
Apparent Right ascension
Unknown
Apparent Declination
Unknown
Sunlit
N/A
Visualization observer readout
Local Sidereal Time
23:02:55
Azimuth
Unknown
Elevation
Unknown
Doppler factor
Unknown
Orbital elements
Apogee altitude
425.295 km
Perigee altitude
418.535 km
Semi-major axis
6,800.052 km
Eccentricity
0.0005
Inclination
97.3962°
RAAN
328.2996°
Arg. of periapsis
212.6542°
True anomaly
147.47083°
Mean anomaly
147.4402°
Eccentric anomaly
147.45552°
Mean motion
3.87057 °/min
Orbital period
93.01 mins
BSTAR
0.0003639
Loading maneuver chart data...
Computing Atmospheric mass density...

Documentation

Showing up to 5 results
|